|
NORAD ID: 23002 Int'l Code: 1994-011D
Perigee: 1,411.0 km
Apogee: 1,421.2 km
Inclination: 82.6 °
Period: 114.0 minutes
Semi major axis: 7787 km
Launch date: February 12, 1994
Source: Commonwealth of Independent States (former USSR) (CIS)
Two Line Element Set (TLE):
1 23002U 94011D 13136.52017546 .00000034 00000-0 13119-3 0 3670
2 23002 082.5633 118.7976 0006534 239.3057 269.7129 12.63403479888078
Source:
NASA's NSSDC Master Catalog entry for COSMOS 2271
|